CW2640 Weather Reports


Display with metric or nautical units.
time (UTC)temp
F
wind
direction
speed
MPH
gust
MPH
rain 1hr
in
rain 24hr
in
rain mn
in
humidity
%
barometer
mb
20260902211119 96 80 0.0 0.0 0.00 0.00 0.00 54 1016.6
20260902204115 98 80 0.0 0.0 0.00 0.00 0.00 51 1016.8
20260902201114 97 80 0.0 0.0 0.00 0.00 0.00 52 1017.0
20260902194113 98 80 0.0 0.0 0.00 0.00 0.00 46 1017.6
20260902191113 97 80 0.0 0.0 0.00 0.00 0.00 51 1018.0
20260902184109 97 80 0.0 0.0 0.00 0.00 0.00 51 1018.4
20260902181106 97 80 0.0 0.0 0.00 0.00 0.00 49 1018.8
20260902174101 96 80 0.0 0.0 0.00 0.00 0.00 53 1019.3
20260902171100 96 80 0.0 0.0 0.00 0.00 0.00 55 1019.5
20260902164056 95 80 0.0 0.0 0.00 0.00 0.00 55 1019.9
20260902161054 93 80 0.0 0.0 0.00 0.00 0.00 61 1020.0
20260902154050 93 80 0.0 0.0 0.00 0.00 0.00 68 1020.3
20260902151048 89 80 0.0 0.0 0.00 0.00 0.00 73 1020.2
20260902144048 89 80 0.0 0.0 0.00 0.00 0.00 76 1020.3
20260902141048 86 80 0.0 0.0 0.00 0.00 0.00 81 1020.2
20260902134046 80 80 0.0 0.0 0.00 0.00 0.00 89 1020.1
20260902131045 76 80 0.0 0.0 0.00 0.00 0.00 98 1020.1
20260902124042 73 80 0.0 0.0 0.00 0.00 0.00 99 1020.1
20260902121040 72 80 0.0 0.0 0.00 0.00 0.00 99 1019.7
20260902114036 71 80 0.0 0.0 0.00 0.00 0.00 99 1019.8
20260902111033 71 80 0.0 0.0 0.00 0.00 0.00 99 1019.3
20260902104032 72 80 0.0 0.0 0.00 0.00 0.00 99 1019.1
20260902101028 72 80 0.0 0.0 0.00 0.00 0.00 99 1018.8
20260902094024 72 80 0.0 0.0 0.00 0.00 0.00 99 1018.7
20260902091023 72 80 0.0 0.0 0.00 0.00 0.00 99 1018.7
20260902084023 72 80 0.0 0.0 0.00 0.00 0.00 99 1018.4
20260902081018 73 80 0.0 0.0 0.00 0.00 0.00 99 1018.1
20260902074012 73 80 0.0 0.0 0.00 0.00 0.00 99 1018.0
20260902071010 73 80 0.0 0.0 0.00 0.00 0.00 99 1018.0
20260902064009 74 80 0.0 0.0 0.00 0.00 0.00 99 1018.1
20260902061006 74 81 0.0 0.0 0.00 0.00 0.00 99 1017.9
20260902054002 75 87 0.0 0.0 0.00 0.00 0.00 99 1018.0
20260902050958 75 92 0.0 0.0 0.00 0.00 0.00 97 1018.5
20260902043953 76 95 0.0 0.0 0.00 0.00 0.00 95 1018.4
20260902040950 76 96 0.0 0.0 0.00 0.00 0.00 94 1018.4
20260902033950 77 100 0.0 0.0 0.00 0.00 0.00 94 1018.5
20260902030948 77 100 0.0 0.0 0.00 0.00 0.00 93 1018.5
20260902023943 78 101 0.0 0.0 0.00 0.00 0.00 91 1018.4
20260902020944 79 105 0.0 0.0 0.00 0.00 0.00 90 1018.0
20260902013939 80 106 0.0 0.0 0.00 0.00 0.00 89 1017.9
20260902010939 81 107 0.0 0.0 0.00 0.00 0.00 87 1017.6
20260902003936 82 103 0.0 0.0 0.00 0.00 0.00 86 1017.7
20260902000934 84 88 0.0 0.0 0.00 0.00 0.00 80 1017.5
20260901233932 87 98 0.0 0.0 0.00 0.00 0.00 73 1017.7
20260901230930 89 94 0.0 0.0 0.00 0.00 0.00 66 1017.6
20260901223929 92 84 0.0 0.0 0.00 0.00 0.00 58 1017.8
20260901220925 94 80 0.0 0.0 0.00 0.00 0.00 54 1017.5
20260901213925 95 80 0.0 0.0 0.00 0.00 0.00 52 1017.7